Sault Ste Marie, MI

11:18 AM EDT on June 28, 2017 (GMT -0400)
Sault Ste Marie Municipal / Sanderson Field

Weather History for KANJ - June, 2012

Change the Weather History Date:

Monday, June 25, 2012

  Actual Average Record
Temperature  
Mean Temperature 58 °F 62 °F  
Max Temperature 68 °F 74 °F 88 °F (1966)
Min Temperature 48 °F 51 °F 35 °F (2004)
Degree Days  
Heating Degree Days 7 4  
Month to date heating degree days 100 161  
Since 1 June heating degree days 100 161  
Since 1 July heating degree days 7112 8644  
Cooling Degree Days 0 2  
Month to date cooling degree days 53 20  
Year to date cooling degree days 70 25  
Since 1 June cooling degree days 53 20  
Growing Degree Days 9 (Base 50)    
Moisture  
Dew Point 45 °F    
Average Humidity 60    
Maximum Humidity 80    
Minimum Humidity 39    
Precipitation  
Precipitation 0.00 in 0.09 in 1.75 in (1949)
Month to date precipitation 4.32 2.27  
Year to date precipitation 12.92 12.71  
Sea Level Pressure  
Sea Level Pressure 30.08 in    
Wind  
Wind Speed 10 mph (NW)    
Max Wind Speed 21 mph    
Max Gust Speed 28 mph    
Visibility 10 miles    
Events      
T = Trace of Precipitation, MM = Missing Value Source: NWS Daily Summary

Daily Weather History Graph

Daily Weather History Graph

Search for Another Location

Airport or City:

Trip Planner

Search our weather history database for the weather conditions in past years. The results will help you decide how hot, cold, wet, or windy it might be!

Date:

Astronomy

Jun. 25, 2012 Rise Set
Actual Time 5:45 AM EDT 9:34 PM EDT
Civil Twilight 5:06 AM EDT 10:13 PM EDT
Nautical Twilight 4:13 AM EDT 11:06 PM EDT
Astronomical Twilight 2:57 AM EDT 12:22 AM EDT
Moon 12:18 PM EDT (6/25) 12:11 AM EDT (6/25)
Length of Visible Light 17h 06m
Length of Day
15h 48m
Waxing Crescent, 34% of the Moon is Illuminated
Jun 25
Waxing Crescent
Jun 26
First Quarter
Jul 3
Full
Jul 10
Last Quarter
Jul 19
New

Hourly Weather History & Observations

Time (EDT) Temp. Dew Point Humidity Pressure Visibility Wind Dir Wind Speed Gust Speed Precip Events Conditions
12:55 AM 53.1 °F 46.9 °F 80% 30.05 in 10.0 mi NNW 3.5 mph - N/A   Clear
1:55 AM 54.0 °F 46.0 °F 75% 30.05 in 10.0 mi NNW 4.6 mph - N/A   Clear
2:55 AM 53.1 °F 45.0 °F 74% 30.07 in 10.0 mi NW 4.6 mph - N/A   Clear
3:55 AM 51.1 °F 45.0 °F 80% 30.07 in 10.0 mi WNW 4.6 mph - N/A   Clear
4:55 AM 52.0 °F 45.0 °F 77% 30.08 in 10.0 mi Calm Calm - N/A   Clear
5:55 AM 50.0 °F 45.0 °F 83% 30.09 in 9.0 mi NW 4.6 mph - N/A   Clear
6:55 AM 53.1 °F 46.9 °F 80% 30.11 in 10.0 mi West 3.5 mph - N/A   Clear
7:55 AM 57.0 °F 50.0 °F 77% 30.12 in 10.0 mi West 6.9 mph - N/A   Partly Cloudy
8:55 AM 61.0 °F 52.0 °F 72% 30.13 in 10.0 mi WNW 6.9 mph - N/A   Clear
9:55 AM 64.0 °F 48.0 °F 56% 30.12 in 10.0 mi NW 8.1 mph - N/A   Clear
10:55 AM 66.0 °F 48.9 °F 54% 30.12 in 10.0 mi NW 11.5 mph - N/A   Clear
11:55 AM 66.9 °F 46.9 °F 49% 30.11 in 10.0 mi NW 11.5 mph 18.4 mph N/A   Scattered Clouds
12:55 PM 66.9 °F 46.9 °F 49% 30.10 in 10.0 mi NW 13.8 mph - N/A   Clear
1:55 PM 66.9 °F 46.0 °F 47% 30.09 in 10.0 mi NW 18.4 mph 26.5 mph N/A   Clear
2:55 PM 68.0 °F 43.0 °F 40% 30.08 in 10.0 mi NW 18.4 mph 25.3 mph N/A   Clear
3:55 PM 68.0 °F 44.1 °F 42% 30.07 in 10.0 mi NW 13.8 mph 25.3 mph N/A   Clear
4:55 PM 68.0 °F 44.1 °F 42% 30.07 in 10.0 mi NW 15.0 mph 21.9 mph N/A   Clear
5:55 PM 66.9 °F 42.1 °F 40% 30.06 in 10.0 mi NW 16.1 mph 27.6 mph N/A   Clear
6:55 PM 64.9 °F 43.0 °F 45% 30.06 in 10.0 mi NW 13.8 mph 24.2 mph N/A   Clear
7:55 PM 62.1 °F 43.0 °F 50% 30.06 in 10.0 mi NW 13.8 mph 21.9 mph N/A   Clear
8:55 PM 60.1 °F 42.1 °F 51% 30.05 in 10.0 mi WNW 8.1 mph - N/A   Clear
9:55 PM 57.0 °F 43.0 °F 59% 30.05 in 10.0 mi WNW 8.1 mph - N/A   Clear
10:55 PM 54.0 °F 44.1 °F 69% 30.05 in 10.0 mi West 8.1 mph - N/A   Clear
11:55 PM 57.0 °F 42.1 °F 57% 30.04 in 10.0 mi WNW 9.2 mph - N/A   Clear